Time,TemperatureF,DewpointF,PressureIn,WindDirection,WindDirectionDegrees,WindSpeedMPH,WindSpeedGustMPH,Humidity,HourlyPrecipIn,Conditions,Clouds,dailyrainin,SoftwareType,DateUTC
2013-03-18 00:03:00,49.0,-99.9,-100.00,North,-999,-999.0,-999.0,-999,-99.99,,,-99.99,,2013-03-18 07:03:00,
2013-03-18 00:13:00,49.0,-99.9,-100.00,North,-999,-999.0,-999.0,-999,-99.99,,,-99.99,,2013-03-18 07:13:00,
2013-03-18 00:23:00,48.0,-99.9,-100.00,North,351,0.0,0.0,-999,-99.99,,,-99.99,,2013-03-18 07:23:00,
2013-03-18 00:33:00,48.0,-99.9,-100.00,WSW,243,0.0,0.0,-999,-99.99,,,-99.99,,2013-03-18 07:33:00,
2013-03-18 00:43:00,48.0,-99.9,-100.00,WSW,243,0.0,0.0,-999,-99.99,,,-99.99,,2013-03-18 07:43:00,
2013-03-18 02:50:00,43.0,-99.9,-100.00,SW,231,0.0,0.0,-999,-99.99,,,-99.99,,2013-03-18 09:50:00,
2013-03-18 03:33:00,43.0,-99.9,-100.00,SW,231,0.0,0.0,-999,-99.99,,,-99.99,,2013-03-18 10:33:00,
2013-03-18 03:42:00,43.0,-99.9,-100.00,SW,231,0.0,0.0,-999,-99.99,,,-99.99,,2013-03-18 10:42:00,
2013-03-18 04:22:00,46.0,-99.9,-100.00,SW,227,0.0,0.0,-999,-99.99,,,-99.99,,2013-03-18 11:22:00,
2013-03-18 04:32:00,46.0,-99.9,-100.00,SW,227,0.0,0.0,-999,-99.99,,,-99.99,,2013-03-18 11:32:00,
2013-03-18 07:22:00,43.0,-99.9,-100.00,SW,222,0.0,0.0,-999,-99.99,,,-99.99,,2013-03-18 14:22:00,
2013-03-18 07:32:00,43.0,-99.9,-100.00,SW,222,0.0,0.0,-999,-99.99,,,-99.99,,2013-03-18 14:32:00,
2013-03-18 09:33:00,56.0,-99.9,-100.00,SW,223,0.0,0.0,-999,-99.99,,,-99.99,,2013-03-18 16:33:00,
2013-03-18 11:03:00,61.0,-99.9,-100.00,SSW,200,0.0,0.0,-999,-99.99,,,-99.99,,2013-03-18 18:03:00,
2013-03-18 14:02:00,67.0,-99.9,-100.00,SSW,213,0.0,0.0,-999,-99.99,,,-99.99,,2013-03-18 21:02:00,
2013-03-18 14:12:00,67.0,-99.9,-100.00,SSW,213,0.0,0.0,-999,-99.99,,,-99.99,,2013-03-18 21:12:00,
2013-03-18 17:03:00,62.0,-99.9,-100.00,SW,229,0.0,0.0,-999,-99.99,,,-99.99,,2013-03-19 00:03:00,
2013-03-18 17:12:00,62.0,-99.9,-100.00,SW,229,0.0,0.0,-999,-99.99,,,-99.99,,2013-03-19 00:12:00,
2013-03-18 17:23:00,62.0,-99.9,-100.00,NW,324,0.0,0.0,-999,-99.99,,,-99.99,,2013-03-19 00:23:00,
2013-03-18 17:33:00,62.0,-99.9,-100.00,NW,324,0.0,0.0,-999,-99.99,,,-99.99,,2013-03-19 00:33:00,
2013-03-18 18:33:00,55.0,-99.9,-100.00,SW,223,0.0,0.0,-999,-99.99,,,-99.99,,2013-03-19 01:33:00,
2013-03-18 18:43:00,55.0,-99.9,-100.00,SW,223,0.0,0.0,-999,-99.99,,,-99.99,,2013-03-19 01:43:00,
2013-03-18 21:34:00,51.0,-99.9,-100.00,NNW,327,0.0,0.0,-999,-99.99,,,-99.99,,2013-03-19 04:34:00,
2013-03-18 21:43:00,51.0,-99.9,-100.00,NNW,327,0.0,0.0,-999,-99.99,,,-99.99,,2013-03-19 04:43:00,
2013-03-18 21:50:00,47.0,-99.9,-100.00,SW,228,0.0,0.0,-999,-99.99,,,-99.99,,2013-03-19 04:50:00,
2013-03-18 22:33:00,47.0,-99.9,-100.00,SW,228,0.0,0.0,-999,-99.99,,,-99.99,,2013-03-19 05:33:00,
2013-03-18 22:43:00,47.0,-99.9,-100.00,SW,228,0.0,0.0,-999,-99.99,,,-99.99,,2013-03-19 05:43:00,
2013-03-18 22:50:00,46.0,-99.9,-100.00,SW,226,0.0,0.0,-999,-99.99,,,-99.99,,2013-03-19 05:50:00,
2013-03-18 23:32:00,46.0,-99.9,-100.00,SW,226,0.0,0.0,-999,-99.99,,,-99.99,,2013-03-19 06:32:00,
2013-03-18 23:42:00,46.0,-99.9,-100.00,SW,226,0.0,0.0,-999,-99.99,,,-99.99,,2013-03-19 06:42:00,